Change the Weather History Date:

Thursday, November 28, 2013

  Actual Average Record
Temperature  
Mean Temperature 76 °F -  
Max Temperature 80 °F 82 °F 87 °F (1997)
Min Temperature 73 °F 74 °F 73 °F (2013)
Cooling Degree Days 12    
Growing Degree Days 26 (Base 50)    
Moisture  
Dew Point 74 °F    
Average Humidity 90    
Maximum Humidity 100    
Minimum Humidity 83    
Precipitation  
Precipitation 0.39 in - - ()
Sea Level Pressure  
Sea Level Pressure 30.02 in    
Wind  
Wind Speed 13 mph ()    
Max Wind Speed 18 mph    
Max Gust Speed 29 mph    
Visibility 5.8 miles    
Events Rain    
Averages and records for this station are not official NWS values.
T = Trace of Precipitation, MM = Missing Value Source: Averaged Metar Reports

Daily Weather History Graph

Daily Weather History Graph

Search for Another Location

Airport or City:

Trip Planner

Search our weather history database for the weather conditions in past years. The results will help you decide how hot, cold, wet, or windy it might be!

Date:

Astronomy

Nov. 28, 2013 Rise Set
Actual Time 6:41 AM EST 5:45 PM EST
Civil Twilight 6:17 AM EST 6:09 PM EST
Nautical Twilight 5:50 AM EST 6:36 PM EST
Astronomical Twilight 5:23 AM EST 7:03 PM EST
Moon 2:17 AM EST (11/28) 2:23 PM EST (11/28)
Length of Visible Light 11h 51m
Length of Day
11h 04m
Waning Crescent, 22% of the Moon is Illuminated
Nov 28
Waning Crescent
Dec 2
New
Dec 9
First Quarter
Dec 17
Full
Dec 25
Last Quarter

Hourly Weather History & Observations

Time (EST) Temp. Heat Index Dew Point Humidity Pressure Visibility Wind Dir Wind Speed Gust Speed Precip Events Conditions
6:00 AM 77.0 °F - 73.4 °F 89% 30.01 in 5.6 mi NNE 13.8 mph - N/A Rain Light Rain
7:00 AM 76 °F - 74 °F 90% 30.02 in 6 mi NNE 13.8 mph - - Rain Light Rain
7:00 AM 77.0 °F - 73.4 °F 89% 30.01 in 5.6 mi NNE 13.8 mph - N/A Rain Light Rain
8:00 AM 77.0 °F - 73.4 °F 89% 30.04 in 6.2 mi NNE 13.8 mph - N/A   Mostly Cloudy
9:00 AM 75.2 °F - 73.4 °F 94% 30.06 in 5.6 mi NE 16.1 mph - N/A   Mostly Cloudy
10:00 AM 78.8 °F - 73.4 °F 83% 30.06 in 6.2 mi NNE 15.0 mph - N/A Rain Light Rain
11:00 AM 75.2 °F - 73.4 °F 94% 30.06 in - NE 16.1 mph 28.8 mph N/A Rain Rain
12:00 PM 75.2 °F - 75.2 °F 100% 30.04 in 5.0 mi NNE 13.8 mph - N/A Rain Light Rain
1:00 PM 75 °F - 74 °F 96% 30.03 in 5 mi NE 15.0 mph - - Rain Rain
1:00 PM 75.2 °F - 73.4 °F 94% 30.01 in 5.0 mi NE 15.0 mph - N/A Rain Rain
2:00 PM 77.0 °F - 75.2 °F 94% 29.98 in 5.0 mi NE 12.7 mph - N/A Rain Rain
3:00 PM 78.8 °F - 73.4 °F 83% 29.98 in 5.0 mi ENE 16.1 mph - N/A   Mostly Cloudy
4:00 PM 78.8 °F - 75.2 °F 89% 29.98 in 6.2 mi ENE 17.3 mph - N/A   Scattered Clouds
5:00 PM 80.6 °F 86.2 °F 75.2 °F 84% 29.98 in 6.2 mi NE 17.3 mph - N/A   Scattered Clouds
6:00 PM 78.8 °F - 75.2 °F 89% 29.98 in 6.2 mi NE 18.4 mph - N/A   Mostly Cloudy
7:00 PM 78 °F - 74 °F 85% 30.02 in 6 mi NE 17.3 mph - -   Partly Cloudy
7:00 PM 78.8 °F - 75.2 °F 89% 30.01 in 6.2 mi NE 17.3 mph - N/A   Scattered Clouds
8:00 PM 78.8 °F - 75.2 °F 89% 30.04 in 6.2 mi NE 18.4 mph - N/A   Mostly Cloudy
9:00 PM 78.8 °F - 75.2 °F 89% 30.04 in 6.2 mi NE 18.4 mph - N/A   Partly Cloudy
10:00 PM 78.8 °F - 75.2 °F 89% 30.06 in 6.2 mi NE 16.1 mph - N/A   Mostly Cloudy